This demonstration page uses our WeatherBlox Daily Observations layout. Learn more.

Left ArrowRight Arrow

41.86663, -103.66717

Hourly Observations for October 29, 2015

Temp ( °F °C ) Dew Point ( °F °C ) Humidity (%) Winds ( mph kmh ) Pressure ( in mb ) Visibility ( mi km ) Precip ( " mm )
12:53 am 00:53 Clear 29 -1.7 22 -5.6 75 75 N N/A 29.94 1014 10 16 N/A
1:53 am 01:53 Clear 28 -2.2 21 -6.1 75 75 NE 3 6 29.95 1014 10 16 N/A
2:53 am 02:53 Clear 26 -3.3 22 -5.6 84 84 NNE 6 9 29.94 1014 10 16 N/A
3:53 am 03:53 Clear 27 -2.8 23 -5 85 85 SW 8 13 29.94 1014 10 16 N/A
4:53 am 04:53 Clear 25 -3.9 21 -6.1 85 85 ENE 6 9 29.96 1015 10 16 N/A
5:53 am 05:53 Clear 26 -3.3 22 -5.6 84 84 SE 3 6 29.99 1016 10 16 N/A
6:53 am 06:53 Clear 27 -2.8 23 -5 85 85 E 7 11 29.99 1016 10 16 N/A
7:53 am 07:53 Sunny 26 -3.3 22 -5.6 84 84 ESE 6 9 29.99 1016 10 16 N/A
8:53 am 08:53 Sunny 30 -1.1 24 -4.4 79 79 ESE 7 11 30.01 1016 10 16 N/A
9:53 am 09:53 Sunny 35 1.7 27 -2.8 72 72 E 8 13 29.99 1016 10 16 N/A
10:53 am 10:53 Sunny 41 5 30 -1.1 65 65 ESE 7 11 29.98 1015 10 16 N/A
11:53 am 11:53 Sunny 46 7.8 32 undefined 58 58 SE 5 7 29.94 1014 10 16 N/A
12:53 pm 12:53 Sunny 50 10 34 1 54 54 ESE 6 9 29.85 1011 10 16 N/A
1:53 pm 13:53 Sunny 56 13.3 34 1.1 44 44 ESE 9 15 29.86 1011 10 16 N/A
2:53 pm 14:53 Sunny 59 15 32 undefined 36 36 ESE 7 11 29.83 1010 10 16 N/A
3:53 pm 15:53 Cloudy 60 15.6 34 1.1 38 38 ESE 12 19 29.80 1009 10 16 N/A
4:53 pm 16:53 Sunny 57 13.9 29 -1.7 34 34 S 10 17 29.82 1010 10 16 N/A
5:53 pm 17:53 Sunny 50 10 32 undefined 50 50 SE 6 9 29.85 1011 10 16 N/A
6:53 pm 18:53 Clear 44 6.7 32 undefined 63 63 E 7 11 29.86 1011 10 16 N/A
7:53 pm 19:53 Clear 45 7.2 33 0.6 63 63 ESE 8 13 29.87 1012 10 16 N/A
8:53 pm 20:53 Clear 47 8.3 33 0.6 59 59 ESE 12 19 29.85 1011 10 16 N/A
9:53 pm 21:53 Clear 44 6.7 34 1.1 68 68 ESE 10 17 29.85 1011 10 16 N/A
10:53 pm 22:53 Partly Cloudy 44 6.7 32 undefined 63 63 ESE 10 17 29.85 1011 10 16 N/A
11:53 pm 23:53 Clear 41 5 31 -0.6 67 67 E 9 15 29.83 1010 10 16 N/A

Powered by AerisWeather